Meadow Lake, CO

11:23 PM MDT on March 25, 2017 (GMT -0600)
Meadow Lake

Weather History for KFLY - October, 2011

Change the Weather History Date:

Tuesday, October 4, 2011

  Actual Average (KCOS) Record (KCOS)
Temperature  
Mean Temperature 61 °F -  
Max Temperature 74 °F 67 °F 83 °F (1963)
Min Temperature 48 °F 40 °F 20 °F (1959)
Degree Days  
Heating Degree Days 4    
Growing Degree Days 11 (Base 50)    
Moisture  
Dew Point 36 °F    
Average Humidity 41    
Maximum Humidity 63    
Minimum Humidity 26    
Precipitation  
Precipitation 0.00 in - - ()
Sea Level Pressure  
Sea Level Pressure 30.14 in    
Wind  
Wind Speed 9 mph (SW)    
Max Wind Speed 23 mph    
Max Gust Speed 36 mph    
Visibility 10 miles    
Events      
Averages and records for this station are not official NWS values.
T = Trace of Precipitation, MM = Missing Value Source: NWS Daily Summary

Daily Weather History Graph

Daily Weather History Graph

Search for Another Location

Airport or City:

Trip Planner

Search our weather history database for the weather conditions in past years. The results will help you decide how hot, cold, wet, or windy it might be!

Date:

Astronomy

Oct. 04, 2011 Rise Set
Actual Time 6:56 AM MDT 6:36 PM MDT
Civil Twilight 6:30 AM MDT 7:03 PM MDT
Nautical Twilight 5:59 AM MDT 7:34 PM MDT
Astronomical Twilight 5:28 AM MDT 8:05 PM MDT
Moon 2:36 PM MDT (10/4) No Moon Set
Length of Visible Light 12h 32m
Length of Day
11h 39m
First Quarter, 56% of the Moon is Illuminated
Oct 4
First Quarter
Oct 11
Full
Oct 19
Last Quarter
Oct 26
New
Nov 2
First Quarter

Hourly Weather History & Observations

Time (MDT) Temp. Dew Point Humidity Pressure Visibility Wind Dir Wind Speed Gust Speed Precip Events Conditions
12:07 AM 52.7 °F 32.0 °F 45% 30.20 in 10.0 mi NW 11.5 mph - N/A   Clear
12:27 AM 52.2 °F 32.0 °F 46% 30.19 in 10.0 mi NNW 9.2 mph - N/A   Clear
12:47 AM 50.5 °F 32.0 °F 49% 30.18 in 10.0 mi NW 5.8 mph - N/A   Clear
1:07 AM 50.9 °F 32.0 °F 48% 30.18 in 10.0 mi NNW 5.8 mph - N/A   Clear
1:27 AM 52.9 °F 32.0 °F 45% 30.18 in 10.0 mi NNW 4.6 mph - N/A   Clear
1:47 AM 52.9 °F 33.3 °F 47% 30.18 in 10.0 mi NNW 6.9 mph - N/A   Clear
2:07 AM 52.7 °F 35.2 °F 52% 30.18 in 10.0 mi NNW 4.6 mph - N/A   Clear
2:27 AM 52.0 °F 36.0 °F 54% 30.17 in 10.0 mi NNW 5.8 mph - N/A   Clear
2:47 AM 51.1 °F 36.0 °F 56% 30.16 in 10.0 mi NW 5.8 mph - N/A   Clear
3:07 AM 51.3 °F 36.0 °F 56% 30.16 in 10.0 mi NNW 6.9 mph - N/A   Clear
3:27 AM 52.0 °F 36.0 °F 54% 30.16 in 10.0 mi NNW 8.1 mph - N/A   Clear
3:47 AM 54.7 °F 36.5 °F 50% 30.17 in 10.0 mi NNW 6.9 mph - N/A   Clear
4:07 AM 53.8 °F 36.5 °F 52% 30.17 in 10.0 mi NW 8.1 mph - N/A   Clear
4:27 AM 52.9 °F 36.5 °F 54% 30.17 in 10.0 mi NW 5.8 mph - N/A   Clear
4:47 AM 51.4 °F 36.5 °F 57% 30.16 in 10.0 mi NW 6.9 mph - N/A   Clear
5:07 AM 51.8 °F 36.3 °F 56% 30.16 in 10.0 mi NW 5.8 mph - N/A   Clear
5:47 AM 50.9 °F 36.1 °F 57% 30.16 in 10.0 mi WNW 6.9 mph - N/A   Clear
6:07 AM 49.1 °F 36.5 °F 62% 30.16 in 10.0 mi NW 4.6 mph 16.1 mph N/A   Clear
6:27 AM 51.3 °F 35.6 °F 55% 30.17 in 10.0 mi NNW 5.8 mph - N/A   Clear
6:47 AM 49.3 °F 35.8 °F 60% 30.18 in 10.0 mi WNW 3.5 mph - N/A   Clear
7:07 AM 48.0 °F 36.0 °F 63% 30.18 in 10.0 mi NNW 4.6 mph - N/A   Clear
7:27 AM 50.7 °F 36.5 °F 58% 30.18 in 10.0 mi NNW 5.8 mph - N/A   Clear
7:47 AM 53.8 °F 38.7 °F 57% 30.19 in 10.0 mi NW 4.6 mph - N/A   Clear
8:07 AM 59.0 °F 39.2 °F 48% 30.20 in 10.0 mi Calm Calm - N/A   Clear
8:27 AM 61.7 °F 33.6 °F 35% 30.20 in 10.0 mi Calm Calm - N/A   Clear
8:47 AM 62.1 °F 33.8 °F 35% 30.20 in 10.0 mi SE 3.5 mph - N/A   Clear
9:07 AM 63.7 °F 34.3 °F 34% 30.20 in 10.0 mi SSE 4.6 mph - N/A   Clear
9:27 AM 64.9 °F 34.5 °F 32% 30.20 in 10.0 mi Calm Calm - N/A   Clear
9:47 AM 67.8 °F 35.8 °F 31% 30.19 in 10.0 mi SSE 3.5 mph - N/A   Clear
10:07 AM 68.0 °F 36.1 °F 31% 30.19 in 10.0 mi SSE 6.9 mph - N/A   Clear
10:27 AM 67.8 °F 36.9 °F 32% 30.19 in 10.0 mi SE 8.1 mph 19.6 mph N/A   Clear
10:47 AM 68.2 °F 37.9 °F 33% 30.18 in 10.0 mi South 12.7 mph 21.9 mph N/A   Clear
11:07 AM 68.5 °F 38.1 °F 33% 30.18 in 10.0 mi SSW 16.1 mph 23.0 mph N/A   Clear
11:27 AM 69.1 °F 38.5 °F 33% 30.17 in 10.0 mi South 11.5 mph 26.5 mph N/A   Clear
11:47 AM 70.7 °F 38.7 °F 31% 30.16 in 10.0 mi SSW 16.1 mph 23.0 mph N/A   Clear
12:07 PM 72.1 °F 37.6 °F 28% 30.16 in 10.0 mi SSW 15.0 mph 28.8 mph N/A   Clear
12:27 PM 72.5 °F 37.6 °F 28% 30.15 in 10.0 mi South 19.6 mph 28.8 mph N/A   Clear
12:47 PM 73.2 °F 37.8 °F 28% 30.14 in 10.0 mi South 20.7 mph 27.6 mph N/A   Clear
1:07 PM 71.8 °F 36.5 °F 28% 30.13 in 10.0 mi SSE 15.0 mph 28.8 mph N/A   Clear
1:27 PM 71.8 °F 36.3 °F 27% 30.12 in 10.0 mi South 16.1 mph 26.5 mph N/A   Clear
1:47 PM 71.8 °F 35.6 °F 27% 30.11 in 10.0 mi SSE 16.1 mph 29.9 mph N/A   Clear
2:27 PM 71.6 °F 37.4 °F 29% 30.09 in 10.0 mi South 17.3 mph 25.3 mph N/A   Clear
2:47 PM 72.9 °F 37.6 °F 28% 30.08 in 10.0 mi South 18.4 mph 27.6 mph N/A   Clear
3:07 PM 73.9 °F 36.7 °F 26% 30.07 in 10.0 mi South 15.0 mph 26.5 mph N/A   Clear
3:27 PM 70.9 °F 36.7 °F 29% 30.06 in 10.0 mi South 17.3 mph 28.8 mph N/A   Scattered Clouds
3:47 PM 74.1 °F 36.9 °F 26% 30.06 in 10.0 mi South 17.3 mph 31.1 mph N/A   Scattered Clouds
4:07 PM 72.0 °F 35.6 °F 26% 30.05 in 10.0 mi SE 17.3 mph 28.8 mph N/A   Scattered Clouds
4:27 PM 68.9 °F 35.6 °F 29% 30.04 in 10.0 mi SSE 20.7 mph 31.1 mph N/A   Mostly Cloudy
4:47 PM 68.4 °F 35.8 °F 30% 30.04 in 10.0 mi SSE 23.0 mph 33.4 mph N/A   Mostly Cloudy
5:07 PM 67.1 °F 35.1 °F 31% 30.04 in 10.0 mi SSE 21.9 mph 35.7 mph N/A   Overcast
5:27 PM 67.3 °F 35.2 °F 31% 30.04 in 10.0 mi SSE 21.9 mph 33.4 mph N/A   Mostly Cloudy
5:47 PM 65.7 °F 34.9 °F 32% 30.04 in 10.0 mi SSE 18.4 mph 26.5 mph N/A   Scattered Clouds
6:07 PM 65.3 °F 35.1 °F 33% 30.04 in 10.0 mi SSE 17.3 mph 27.6 mph N/A   Scattered Clouds
6:27 PM 64.4 °F 35.2 °F 34% 30.04 in 10.0 mi SSE 19.6 mph 31.1 mph N/A   Clear
6:47 PM 63.7 °F 35.8 °F 35% 30.04 in 10.0 mi SSE 19.6 mph 26.5 mph N/A   Scattered Clouds
7:07 PM 61.7 °F 36.5 °F 39% 30.05 in 10.0 mi SSE 15.0 mph 24.2 mph N/A   Scattered Clouds
7:27 PM 61.7 °F 37.4 °F 41% 30.05 in 10.0 mi South 21.9 mph 27.6 mph N/A   Scattered Clouds
7:47 PM 59.4 °F 39.4 °F 48% 30.05 in 10.0 mi SSW 10.4 mph 17.3 mph N/A   Clear
8:07 PM 57.2 °F 40.1 °F 53% 30.04 in 10.0 mi SE 6.9 mph - N/A   Clear
8:27 PM 57.2 °F 41.4 °F 55% 30.05 in 10.0 mi South 12.7 mph 20.7 mph N/A   Clear
9:07 PM 55.4 °F 43.0 °F 63% 30.06 in 10.0 mi SSE 8.1 mph - N/A   Scattered Clouds
9:27 PM 56.3 °F 43.7 °F 63% 30.06 in 10.0 mi South 17.3 mph 24.2 mph N/A   Overcast
9:47 PM 55.9 °F 44.6 °F 66% 30.06 in 10.0 mi South 15.0 mph 23.0 mph N/A   Overcast
10:07 PM 55.8 °F 43.7 °F 64% 30.06 in 10.0 mi South 17.3 mph 21.9 mph N/A   Mostly Cloudy
10:27 PM 55.4 °F 43.5 °F 64% 30.06 in 10.0 mi South 15.0 mph 20.7 mph N/A   Mostly Cloudy
10:47 PM 53.6 °F 43.7 °F 69% 30.06 in 10.0 mi South 15.0 mph - N/A   Scattered Clouds
11:07 PM 53.1 °F 43.7 °F 71% 30.04 in 10.0 mi South 15.0 mph 19.6 mph N/A   Clear
11:27 PM 52.5 °F 43.2 °F 70% 30.04 in 10.0 mi South 10.4 mph - N/A   Clear
11:47 PM 51.1 °F 43.7 °F 76% 30.04 in 10.0 mi South 12.7 mph - N/A   Clear